This is the latest recevied weather packets stored in our database for station/object OH6LSL. If no packets are shown the sender has not sent any weather packets the latest 10 day(s).
| Time | Temp. | Humidity | Pressure | Rain* | Wind** | Luminosity | Snow |
|---|---|---|---|---|---|---|---|
| 1778048678 | 5° C | 52% | 1003.9 hPa | 0 mm | - | 48 W/m² | - |
| 1778046276 | 4.44° C | 55% | 1003.2 hPa | 0 mm | - | 44 W/m² | - |
| 1778045091 | 4.44° C | 56% | 1003 hPa | 0 mm | - | 40 W/m² | - |
| 1778042091 | 3.33° C | 57% | 1002.8 hPa | 0 mm | - | 37 W/m² | - |
| 1778034292 | 2.22° C | 62% | 1001.8 hPa | 0 mm | - | 12 W/m² | - |
| 1778025284 | 3.33° C | 59% | 1000.6 hPa | 0 mm | - | 0 W/m² | - |
| 1778024074 | 3.33° C | 58% | 1000.5 hPa | 0 mm | - | 0 W/m² | - |
| 1778018080 | 3.33° C | 57% | 1000.2 hPa | 0 mm | - | 0 W/m² | - |
| 1778017476 | 2.78° C | 58% | 1000.2 hPa | 0 mm | - | 0 W/m² | - |
| 1778015673 | 2.78° C | 60% | 999.9 hPa | 0 mm | - | 0 W/m² | - |
| 1778013885 | 2.78° C | 63% | 999.8 hPa | 0 mm | - | 0 W/m² | - |
| 1778012080 | 2.78° C | 62% | 999.7 hPa | 0 mm | - | 0 W/m² | - |
| 1778006681 | 5.56° C | 47% | 999.2 hPa | 0 mm | - | 9 W/m² | - |
| 1778003685 | 6.67° C | 40% | 998.8 hPa | 0 mm | - | 30 W/m² | - |
| 1778001880 | 7.22° C | 39% | 998.6 hPa | 0 mm | - | 53 W/m² | - |
| 1778000692 | 6.67° C | 45% | 998.6 hPa | 0 mm | - | 53 W/m² | - |
| 1777999491 | 7.22° C | 45% | 998.5 hPa | 0 mm | - | 40 W/m² | - |
| 1777997073 | 7.78° C | 47% | 998.4 hPa | 0 mm | - | 62 W/m² | - |
| 1777989901 | 9.44° C | 34% | 997.8 hPa | 0 mm | - | 524 W/m² | - |
| 1777989281 | 9.44° C | 34% | 997.8 hPa | 0 mm | - | 535 W/m² | - |
| 1777986299 | 8.89° C | 31% | 997.6 hPa | 0 mm | - | 53 W/m² | - |
| 1777983910 | 8.89° C | 34% | 997.1 hPa | 0 mm | - | 116 W/m² | - |
| 1777978508 | 8.89° C | 39% | 996.5 hPa | 0 mm | - | 702 W/m² | - |
| 1777975474 | 7.78° C | 46% | 996.1 hPa | 0 mm | - | 700 W/m² | - |
| 1777973704 | 6.67° C | 43% | 995.9 hPa | 0 mm | - | 686 W/m² | - |
* Rain latest hour (hover to see other rain measurements)
** Current wind speed in m/s (hover to see current wind gust speed)